Weather History for Lander, WY

Change the Weather History Date:

Monday, March 18, 2013

  Actual Average Record
Temperature  
Mean Temperature 30 °F 36 °F  
Max Temperature 44 °F 48 °F 70 °F (1972)
Min Temperature 16 °F 25 °F -14 °F (1965)
Degree Days  
Heating Degree Days 35 29  
Month to date heating degree days 500 569  
Since 1 July heating degree days 5869 6273  
Cooling Degree Days 0 0  
Month to date cooling degree days 0 0  
Year to date cooling degree days 0 0  
Moisture  
Dew Point 6 °F    
Average Humidity 39    
Maximum Humidity 61    
Minimum Humidity 17    
Precipitation  
Precipitation 0.00 in 0.05 in 1.80 in (1903)
Month to date precipitation T 0.58  
Year to date precipitation 1.98 1.57  
Snow  
Snow 0.00 in 0.50 in - ()
Month to date snowfall T 8.3  
Since 1 July snowfall 52.2 61.9  
Snow Depth 0.00 in    
Sea Level Pressure  
Sea Level Pressure 29.90 in    
Wind  
Wind Speed 13 mph (WSW)    
Max Wind Speed 36 mph    
Max Gust Speed 45 mph    
Visibility 10 miles    
Events      
T = Trace of Precipitation, MM = Missing Value Source: NWS Daily Summary

Daily Weather History Graph

Daily Weather History Graph

Search for Another Location

Airport:

Trip Planner

Search our weather history database for the weather conditions in past years. The results will help you decide how hot, cold, wet, or windy it might be!

Date:

Astronomy

Mar. 18, 2013 Rise Set
Actual Time 7:21 AM MDT 7:25 PM MDT
Civil Twilight 6:52 AM MDT 7:53 PM MDT
Nautical Twilight 6:19 AM MDT 8:26 PM MDT
Astronomical Twilight 5:46 AM MDT 9:00 PM MDT
Moon 11:15 AM MDT 1:35 AM MDT
Length of Visible Light 13h 00m
Length of Day
12h 04m
Waxing Crescent, 41% of the Moon is Illuminated
Mar 18
Waxing Crescent
Mar 19
First Quarter
Mar 27
Full
Apr 2
Last Quarter
Apr 10
New

Hourly Weather History & Observations

Time (MDT) Temp. Windchill Dew Point Humidity Pressure Visibility Wind Dir Wind Speed Gust Speed Precip Events Conditions
12:53 AM 21.0 °F 16.2 °F 3.9 °F 48% 29.91 in 10.0 mi South 3.5 mph - N/A   Clear
1:53 AM 25.0 °F 18.1 °F 3.0 °F 39% 29.89 in 10.0 mi WSW 5.8 mph - N/A   Clear
2:53 AM 21.0 °F 16.2 °F 3.0 °F 46% 29.92 in 10.0 mi NNW 3.5 mph - N/A   Clear
3:53 AM 21.9 °F 17.2 °F 3.0 °F 44% 29.93 in 10.0 mi SSW 3.5 mph - N/A   Clear
4:53 AM 19.9 °F 13.4 °F 3.9 °F 50% 29.93 in 10.0 mi SE 4.6 mph - N/A   Clear
5:53 AM 18.0 °F - 5.0 °F 57% 29.94 in 10.0 mi Calm Calm - N/A   Clear
6:53 AM 19.0 °F 13.9 °F 5.0 °F 54% 29.96 in 10.0 mi SSW 3.5 mph - N/A   Clear
7:53 AM 18.0 °F 12.7 °F 7.0 °F 62% 29.99 in 10.0 mi ESE 3.5 mph - N/A   Clear
8:53 AM 25.0 °F 14.2 °F 12.0 °F 58% 29.97 in 10.0 mi ESE 11.5 mph - N/A   Clear
9:53 AM 30.9 °F 20.7 °F 9.0 °F 40% 29.95 in 10.0 mi SSE 13.8 mph - N/A   Clear
10:53 AM 34.0 °F 27.2 °F 7.0 °F 32% 29.93 in 10.0 mi ESE 8.1 mph - N/A   Clear
11:53 AM 37.0 °F 31.0 °F 5.0 °F 26% 29.89 in 10.0 mi NE 8.1 mph - N/A   Clear
12:53 PM 39.9 °F 32.1 °F 3.9 °F 22% 29.87 in 10.0 mi North 13.8 mph 19.6 mph N/A   Clear
1:53 PM 42.1 °F 34.5 °F 3.0 °F 20% 29.84 in 10.0 mi WNW 15.0 mph 35.7 mph N/A   Overcast
2:30 PM 42.8 °F 36.2 °F -0.4 °F 16% 29.81 in 10.0 mi WNW 12.7 mph 25.3 mph N/A   Partly Cloudy
2:53 PM 42.1 °F 32.3 °F -0.0 °F 17% 29.86 in 10.0 mi West 24.2 mph 36.8 mph N/A   Clear
3:53 PM 39.9 °F 29.2 °F 3.9 °F 22% 29.87 in 10.0 mi WNW 25.3 mph 31.1 mph N/A   Clear
4:53 PM 39.9 °F 29.2 °F 3.0 °F 21% 29.88 in 10.0 mi West 25.3 mph 34.5 mph N/A   Clear
5:53 PM 37.9 °F 26.8 °F 9.0 °F 30% 29.89 in 10.0 mi West 24.2 mph 31.1 mph N/A   Clear
6:53 PM 35.1 °F 24.5 °F 10.0 °F 35% 29.92 in 10.0 mi West 18.4 mph - N/A   Clear
7:53 PM 34.0 °F 26.6 °F 10.0 °F 37% 29.93 in 10.0 mi WSW 9.2 mph - N/A   Clear
8:53 PM 35.1 °F 28.6 °F 9.0 °F 34% 29.89 in 10.0 mi WNW 8.1 mph - N/A   Clear
9:53 PM 30.9 °F - 9.0 °F 40% 29.90 in 10.0 mi Calm Calm - N/A   Clear
10:53 PM 34.0 °F 24.2 °F 8.1 °F 34% 29.88 in 10.0 mi WNW 15.0 mph 24.2 mph N/A   Clear
11:53 PM 34.0 °F 20.3 °F 5.0 °F 30% 29.85 in 10.0 mi West 29.9 mph 40.3 mph N/A   Clear